Cheboygan, MI

7:55 PM EDT on April 29, 2017 (GMT -0400)
Cheboygan

Weather History for KSLH - May, 2014

Change the Weather History Date:

Saturday, May 17, 2014

  Actual Average (KMCD) Record (KMCD)
Temperature  
Mean Temperature 38 °F -  
Max Temperature 49 °F 54 °F 80 °F (1977)
Min Temperature 28 °F 39 °F 22 °F (1981)
Degree Days  
Heating Degree Days 26    
Moisture  
Dew Point 32 °F    
Average Humidity 78    
Maximum Humidity 99    
Minimum Humidity 53    
Precipitation  
Precipitation 0.00 in - - ()
Sea Level Pressure  
Sea Level Pressure 30.04 in    
Wind  
Wind Speed 4 mph (NNE)    
Max Wind Speed 12 mph    
Max Gust Speed -    
Visibility 10 miles    
Events Rain    
Averages and records for this station are not official NWS values.
T = Trace of Precipitation, MM = Missing Value Source: NWS Daily Summary

Daily Weather History Graph

Daily Weather History Graph

Search for Another Location

Airport or City:

Trip Planner

Search our weather history database for the weather conditions in past years. The results will help you decide how hot, cold, wet, or windy it might be!

Date:

Astronomy

May. 17, 2014 Rise Set
Actual Time 6:04 AM EDT 9:04 PM EDT
Civil Twilight 5:29 AM EDT 9:40 PM EDT
Nautical Twilight 4:44 AM EDT 10:25 PM EDT
Astronomical Twilight 3:51 AM EDT 11:19 PM EDT
Moon No Moon Rise 8:47 AM EDT (5/17)
Length of Visible Light 16h 10m
Length of Day
15h 00m
Waning Gibbous, 89% of the Moon is Illuminated
May 17
Waning Gibbous
May 21
Last Quarter
May 28
New
Jun 5
First Quarter
Jun 13
Full

Hourly Weather History & Observations

Time (EDT) Temp. Windchill Dew Point Humidity Pressure Visibility Wind Dir Wind Speed Gust Speed Precip Events Conditions
12:16 AM 34.7 °F 29.6 °F 32.0 °F 90% 30.04 in 10.0 mi WSW 5.8 mph - N/A   Clear
12:36 AM 34.0 °F 28.0 °F 31.8 °F 92% 30.04 in 10.0 mi West 6.9 mph - N/A   Clear
12:56 AM 33.6 °F 29.4 °F 31.5 °F 92% 30.04 in 10.0 mi West 4.6 mph - N/A   Clear
1:17 AM 33.1 °F 27.7 °F 31.1 °F 92% 30.04 in 10.0 mi WSW 5.8 mph - N/A   Clear
1:36 AM 32.4 °F 26.9 °F 30.9 °F 94% 30.03 in 10.0 mi WSW 5.8 mph - N/A   Clear
1:56 AM 32.4 °F 26.9 °F 30.9 °F 94% 30.03 in 10.0 mi WSW 5.8 mph - N/A   Clear
2:17 AM 32.2 °F 27.7 °F 30.7 °F 94% 30.03 in 10.0 mi WSW 4.6 mph - N/A   Clear
2:36 AM 32.2 °F 26.7 °F 30.7 °F 94% 30.03 in 10.0 mi WSW 5.8 mph - N/A   Clear
2:56 AM 32.0 °F - 30.4 °F 94% 30.03 in 10.0 mi Calm Calm - N/A   Clear
3:16 AM 31.1 °F - 29.7 °F 94% 30.03 in 10.0 mi Calm Calm - N/A   Clear
3:36 AM 30.9 °F - 29.8 °F 96% 30.02 in 10.0 mi Calm Calm - N/A   Clear
3:56 AM 30.4 °F 25.6 °F 29.8 °F 98% 30.02 in 10.0 mi WSW 4.6 mph - N/A   Clear
4:16 AM 30.6 °F 27.1 °F 29.8 °F 97% 30.02 in 10.0 mi WSW 3.5 mph - N/A   Clear
4:37 AM 30.0 °F - 29.3 °F 97% 30.02 in 10.0 mi Calm Calm - N/A   Clear
4:56 AM 29.3 °F 25.6 °F 28.9 °F 99% 30.02 in 10.0 mi WSW 3.5 mph - N/A   Clear
5:16 AM 30.0 °F - 29.7 °F 99% 30.02 in 10.0 mi Calm Calm - N/A   Clear
5:36 AM 28.2 °F - 27.7 °F 98% 30.02 in 10.0 mi Calm Calm - N/A   Clear
5:56 AM 29.3 °F - 29.1 °F 99% 30.02 in 10.0 mi Calm Calm - N/A   Clear
6:17 AM 29.3 °F 25.6 °F 29.1 °F 99% 30.03 in 10.0 mi SW 3.5 mph - N/A   Clear
6:36 AM 29.3 °F 25.6 °F 29.1 °F 99% 30.03 in 10.0 mi SW 3.5 mph - N/A   Clear
6:56 AM 30.4 °F 26.9 °F 30.0 °F 99% 30.03 in 10.0 mi WSW 3.5 mph - N/A   Clear
7:17 AM 32.0 °F - 31.6 °F 99% 30.04 in 10.0 mi Calm Calm - N/A   Clear
7:36 AM 33.3 °F 30.2 °F 32.2 °F 96% 30.04 in 10.0 mi West 3.5 mph - N/A   Clear
7:56 AM 34.7 °F 30.6 °F 32.2 °F 91% 30.04 in 10.0 mi West 4.6 mph - N/A   Clear
8:17 AM 35.2 °F 32.4 °F 32.0 °F 88% 30.04 in 10.0 mi NNW 3.5 mph - N/A   Clear
8:36 AM 36.5 °F - 33.4 °F 89% 30.04 in 10.0 mi Calm Calm - N/A   Scattered Clouds
8:57 AM 37.2 °F - 33.6 °F 87% 30.05 in 10.0 mi Calm Calm - N/A   Clear
9:16 AM 38.3 °F - 33.3 °F 82% 30.05 in 10.0 mi Calm Calm - N/A   Clear
9:36 AM 39.4 °F - 33.1 °F 78% 30.05 in 10.0 mi Calm Calm - N/A   Clear
9:57 AM 41.4 °F - 32.5 °F 71% 30.05 in 10.0 mi Calm Calm - N/A   Clear
10:16 AM 42.1 °F 40.2 °F 32.5 °F 69% 30.05 in 10.0 mi NNE 3.5 mph - N/A   Clear
10:36 AM 43.0 °F 40.3 °F 33.6 °F 70% 30.04 in 10.0 mi East 4.6 mph - N/A   Scattered Clouds
10:57 AM 43.7 °F 41.1 °F 32.7 °F 65% 30.04 in 10.0 mi ENE 4.6 mph - N/A   Mostly Cloudy
11:16 AM 44.1 °F 41.5 °F 32.2 °F 63% 30.04 in 10.0 mi NE 4.6 mph - N/A   Mostly Cloudy
11:37 AM 45.0 °F 41.8 °F 32.0 °F 60% 30.04 in 10.0 mi NNE 5.8 mph - N/A   Mostly Cloudy
11:56 AM 45.5 °F 43.2 °F 32.0 °F 59% 30.03 in 10.0 mi NNE 4.6 mph - N/A   Mostly Cloudy
12:16 PM 45.9 °F 42.9 °F 30.9 °F 56% 30.03 in 10.0 mi NNE 5.8 mph - N/A   Scattered Clouds
12:37 PM 43.2 °F 40.5 °F 30.2 °F 60% 30.04 in 7.0 mi NNE 4.6 mph - N/A Rain Heavy Rain
12:56 PM 44.4 °F 42.9 °F 32.7 °F 64% 30.04 in 10.0 mi ENE 3.5 mph - N/A   Scattered Clouds
1:16 PM 44.8 °F - 33.4 °F 64% 30.04 in 10.0 mi Calm Calm - N/A   Mostly Cloudy
1:37 PM 45.3 °F 42.3 °F 33.6 °F 64% 30.03 in 10.0 mi NE 5.8 mph - N/A Rain Light Rain
1:56 PM 45.3 °F 42.3 °F 34.9 °F 67% 30.03 in 10.0 mi ENE 5.8 mph - N/A   Mostly Cloudy
2:16 PM 47.3 °F - 35.1 °F 62% 30.03 in 10.0 mi ENE 5.8 mph - N/A   Mostly Cloudy
2:36 PM 47.8 °F - 35.8 °F 63% 30.03 in 10.0 mi NE 8.1 mph - N/A   Mostly Cloudy
2:56 PM 49.1 °F - 34.3 °F 57% 30.03 in 10.0 mi East 5.8 mph - N/A   Scattered Clouds
3:17 PM 47.5 °F - 32.9 °F 57% 30.03 in 10.0 mi NNE 5.8 mph - N/A   Mostly Cloudy
3:36 PM 47.5 °F - 34.0 °F 59% 30.03 in 10.0 mi ENE 9.2 mph - N/A   Mostly Cloudy
3:56 PM 45.7 °F 43.4 °F 33.3 °F 62% 30.03 in 10.0 mi NE 4.6 mph - N/A   Mostly Cloudy
4:17 PM 46.6 °F - 32.9 °F 59% 30.03 in 10.0 mi East 5.8 mph - N/A   Mostly Cloudy
4:36 PM 49.1 °F - 33.4 °F 55% 30.02 in 10.0 mi ENE 4.6 mph - N/A   Scattered Clouds
4:56 PM 49.5 °F - 32.9 °F 53% 30.02 in 10.0 mi North 5.8 mph - N/A   Mostly Cloudy
5:17 PM 47.5 °F - 34.7 °F 61% 30.03 in 10.0 mi North 11.5 mph - N/A   Mostly Cloudy
5:36 PM 45.7 °F 41.5 °F 33.8 °F 63% 30.04 in 10.0 mi NE 8.1 mph - N/A   Mostly Cloudy
5:56 PM 44.6 °F 39.2 °F 32.2 °F 62% 30.05 in 10.0 mi ENE 10.4 mph - N/A   Overcast
6:16 PM 44.6 °F 40.7 °F 34.0 °F 66% 30.05 in 10.0 mi ENE 6.9 mph - N/A   Overcast
6:36 PM 46.2 °F 42.7 °F 32.9 °F 60% 30.05 in 10.0 mi ENE 6.9 mph - N/A   Scattered Clouds
6:57 PM 46.4 °F 44.3 °F 32.9 °F 59% 30.05 in 10.0 mi ENE 4.6 mph - N/A   Scattered Clouds
7:16 PM 47.5 °F - 32.9 °F 57% 30.05 in 10.0 mi ENE 3.5 mph - N/A   Scattered Clouds
7:36 PM 47.5 °F - 33.1 °F 57% 30.05 in 10.0 mi ENE 5.8 mph - N/A   Scattered Clouds
7:57 PM 47.5 °F - 32.5 °F 56% 30.05 in 10.0 mi NE 3.5 mph - N/A   Clear
8:16 PM 46.4 °F 44.3 °F 35.2 °F 65% 30.05 in 10.0 mi NE 4.6 mph - N/A   Clear
8:36 PM 44.6 °F - 36.3 °F 73% 30.06 in 10.0 mi Calm Calm - N/A   Clear
8:56 PM 43.2 °F - 36.3 °F 77% 30.06 in 10.0 mi Calm Calm - N/A   Clear
9:16 PM 41.5 °F - 36.1 °F 81% 30.06 in 10.0 mi Calm Calm - N/A   Clear
9:37 PM 40.1 °F - 36.1 °F 86% 30.06 in 10.0 mi Calm Calm - N/A   Clear
9:56 PM 38.7 °F - 35.6 °F 89% 30.06 in 10.0 mi Calm Calm - N/A   Clear
10:16 PM 36.1 °F - 34.0 °F 92% 30.06 in 10.0 mi Calm Calm - N/A   Scattered Clouds
10:37 PM 35.4 °F - 33.3 °F 92% 30.07 in 10.0 mi Calm Calm - N/A   Clear
10:56 PM 35.1 °F - 32.9 °F 92% 30.07 in 10.0 mi Calm Calm - N/A   Clear
11:16 PM 34.5 °F - 33.3 °F 95% 30.07 in 10.0 mi Calm Calm - N/A   Clear
11:37 PM 35.1 °F - 33.6 °F 94% 30.07 in 10.0 mi Calm Calm - N/A   Mostly Cloudy
11:56 PM 34.3 °F - 32.5 °F 93% 30.07 in 10.0 mi Calm Calm - N/A   Mostly Cloudy